TimeCST,TemperatureF,Dew PointF,Humidity,Sea Level PressureIn,VisibilityMPH,Wind Direction,Wind SpeedMPH,Gust SpeedMPH,PrecipitationIn,Events,Conditions,WindDirDegrees,DateUTC
12:51 AM,30.9,24.1,76,30.30,10.0,SSE,9.2,-,N/A,,Scattered Clouds,150,2013-03-09 06:51:00
1:51 AM,30.0,23.0,75,30.29,10.0,SSE,8.1,-,N/A,,Scattered Clouds,160,2013-03-09 07:51:00
2:51 AM,30.2,24.8,80,30.23,10.0,SE,11.5,-,N/A,,Scattered Clouds,130,2013-03-09 08:51:00
3:51 AM,32.0,24.1,73,30.24,10.0,SSE,8.1,-,N/A,,Mostly Cloudy,160,2013-03-09 09:51:00
4:51 AM,32.0,25.0,75,30.23,10.0,SSE,8.1,-,N/A,,Scattered Clouds,150,2013-03-09 10:51:00
5:51 AM,33.8,24.8,70,30.22,10.0,SSE,6.9,-,N/A,,Overcast,160,2013-03-09 11:51:00
6:46 AM,33.8,26.6,75,30.21,8.0,South,10.4,-,0.00,,Light Ice Pellets,170,2013-03-09 12:46:00
6:51 AM,33.1,27.0,78,30.24,8.0,South,10.4,-,0.00,,Light Ice Pellets,170,2013-03-09 12:51:00
6:59 AM,33.8,26.6,75,30.21,8.0,South,10.4,-,0.00,Rain,Light Rain,170,2013-03-09 12:59:00
7:11 AM,33.8,28.4,81,30.22,8.0,South,9.2,-,0.00,Rain,Light Rain,180,2013-03-09 13:11:00
7:51 AM,33.1,28.9,85,30.24,7.0,South,9.2,-,0.03,Rain,Light Rain,170,2013-03-09 13:51:00
8:10 AM,33.8,30.2,87,30.19,9.0,SSE,11.5,-,0.01,Rain,Light Rain,150,2013-03-09 14:10:00
8:51 AM,33.8,30.2,87,30.18,10.0,SSE,10.4,-,N/A,,Overcast,150,2013-03-09 14:51:00
9:51 AM,36.0,30.0,79,30.17,10.0,SSE,12.7,-,N/A,,Overcast,160,2013-03-09 15:51:00
10:51 AM,37.0,30.0,76,30.12,10.0,SSE,11.5,-,N/A,,Overcast,150,2013-03-09 16:51:00
11:51 AM,37.9,30.0,73,30.09,10.0,SSE,12.7,-,N/A,,Overcast,160,2013-03-09 17:51:00
12:51 PM,39.9,28.9,65,30.04,10.0,South,17.3,-,N/A,,Overcast,180,2013-03-09 18:51:00
1:51 PM,41.0,30.0,65,30.03,10.0,South,16.1,-,N/A,,Mostly Cloudy,180,2013-03-09 19:51:00
2:51 PM,39.9,30.0,68,29.99,10.0,South,13.8,-,N/A,,Overcast,170,2013-03-09 20:51:00
3:51 PM,41.0,30.0,65,29.97,10.0,South,13.8,-,N/A,,Overcast,170,2013-03-09 21:51:00
4:51 PM,41.0,30.9,67,29.94,10.0,SSE,12.7,-,0.00,Rain,Light Rain,150,2013-03-09 22:51:00
5:51 PM,39.9,32.0,73,29.93,10.0,SSE,11.5,-,0.00,,Overcast,150,2013-03-09 23:51:00
6:51 PM,41.0,32.0,70,29.91,10.0,SSE,13.8,-,N/A,,Overcast,150,2013-03-10 00:51:00
7:51 PM,41.0,32.0,70,29.89,10.0,SSE,12.7,-,N/A,,Overcast,160,2013-03-10 01:51:00
8:51 PM,39.0,33.1,79,29.89,10.0,SSE,8.1,-,N/A,,Overcast,160,2013-03-10 02:51:00
9:51 PM,41.0,33.1,73,29.88,10.0,SSE,8.1,-,N/A,,Overcast,160,2013-03-10 03:51:00
10:51 PM,41.0,33.1,73,29.87,10.0,South,5.8,-,N/A,,Overcast,170,2013-03-10 04:51:00
11:51 PM,44.1,32.0,63,29.84,10.0,South,11.5,-,N/A,,Overcast,180,2013-03-10 05:51:00